[[{"header":{"parameterUnit":"m.s-1","parameterCategory":1,"la1":30.2991,"la2":30.254,"lo1":-89.0895,"lo2":-89.0444,"dx":0.0017,"dy":0.0017,"nx":28,"ny":28,"refTime":"2023-01-27T15:00:00:Z","depth":0,"parameterNumber":2,"parameterNumberName":"U-component_of_WINDS"},"data":[0,0,0,0,0,0,0,0,0,0,0,0,0,0,0,0,0,0,0,0,0,0,0,0,0,0,0,0,0,0,0,0,0,0,0,0,0,0,0,0,0,0,0,0,0,0,0,0,0,0,0,0,0,0,0,0,0,0,-2.8214,-2.8214,0,-2.8268,-2.8269,-2.827,-2.8269,-2.8268,-2.8267,-2.8267,-2.8321,-2.8323,-2.8325,0,0,0,0,0,0,0,0,0,0,0,0,0,-2.8107,-2.8109,-2.8213,-2.8214,-2.8215,-2.8268,-2.8269,-2.827,-2.8269,-2.8268,-2.8267,-2.8266,-2.832,-2.8323,-2.8325,0,0,0,0,0,0,0,0,0,0,0,0,0,-2.8156,-2.8109,-2.8213,-2.8221,-2.8222,-2.8268,-2.8269,-2.827,-2.8269,-2.8268,-2.8267,-2.8266,-2.8319,-2.8323,-2.8326,-2.8367,0,0,-2.8335,-2.8337,0,0,0,0,0,0,0,0,-2.8154,-2.816,-2.8219,-2.822,-2.8222,-2.8261,-2.8251,-2.8302,-2.8269,-2.8251,-2.8267,-2.8265,-2.8302,-2.8306,-2.8319,-2.837,-2.8372,-2.8336,-2.8338,-2.8339,-2.834,0,0,0,0,0,0,0,-2.815,-2.8158,-2.8235,-2.822,-2.8222,-2.8221,-2.8227,-2.8261,-2.8282,-2.8253,-2.8253,-2.8259,-2.8302,-2.8316,-2.832,-2.8373,-2.8336,-2.8338,-2.834,-2.8342,-2.846,-2.8461,0,0,0,0,0,0,-2.8145,-2.8155,-2.8233,-2.8237,-2.8184,-2.8224,-2.823,-2.8249,-2.8281,-2.8285,-2.826,-2.8259,-2.8311,-2.8316,-2.8322,-2.8372,-2.8339,-2.8342,-2.8344,-2.8459,-2.846,-2.8461,0,0,0,0,0,0,-2.8143,-2.8152,-2.8231,-2.8196,-2.8206,-2.8227,-2.8248,-2.8251,-2.8264,-2.8287,-2.8291,-2.827,-2.831,-2.8318,-2.8356,-2.8374,-2.8343,-2.8346,-2.8457,-2.8459,-2.8461,-2.8472,0,0,0,0,0,0,-2.814,-2.8151,-2.8168,-2.8196,-2.8208,-2.8264,-2.8249,-2.8253,-2.827,-2.8269,-2.8298,-2.8301,-2.831,-2.8351,-2.8359,-2.8378,-2.8349,-2.8456,-2.8458,-2.846,-2.847,-2.8474,-2.8477,0,0,0,0,0,-2.8136,-2.8168,-2.8169,-2.8178,-2.8229,-2.8266,-2.8272,-2.8282,-2.8272,-2.8288,-2.8302,-2.83,-2.8371,-2.8355,-2.8364,-2.8384,-2.8454,-2.8457,-2.846,-2.8469,-2.8473,-2.8477,0,0,0,0,0,0,-2.8141,-2.8172,-2.8173,-2.8215,-2.8238,-2.8265,-2.8286,-2.8287,-2.8312,-2.831,-2.8321,-2.8327,-2.8365,-2.8379,-2.836,-2.8425,-2.8411,-2.8416,-2.8415,-2.842,-2.8423,-2.8418,-2.8351,0,0,0,0,0,-2.8147,-2.8175,-2.8201,-2.8236,-2.8247,-2.8265,-2.8281,-2.8287,-2.831,-2.832,-2.8337,-2.8359,-2.8387,-2.8404,-2.843,-2.8473,-2.8478,-2.8491,-2.8494,-2.8497,-2.8501,-2.8523,-2.8529,-2.847,-2.847,-2.847,0,0,-2.8159,-2.818,-2.8197,-2.8237,-2.8255,-2.8283,-2.8273,-2.8303,-2.8323,-2.8324,-2.8361,-2.8375,-2.8401,-2.8441,-2.8459,-2.8453,-2.8518,-2.8501,-2.8503,-2.8505,-2.8527,-2.8532,-2.8537,-2.8472,-2.8472,-2.8472,0,0,-2.8196,-2.8215,-2.8246,-2.8264,-2.8292,-2.8304,-2.8311,-2.8339,-2.8348,-2.8386,-2.8387,-2.8412,-2.8459,-2.8477,-2.8492,-2.8536,-2.8535,-2.8545,-2.8563,-2.8585,-2.8589,-2.8593,-2.8608,-2.8613,-2.8548,-2.8548,-2.8548,0,-2.8207,-2.825,-2.8262,-2.8292,-2.8309,-2.8312,-2.8343,-2.8361,-2.8395,-2.8407,-2.84,-2.8458,-2.8476,-2.852,-2.8531,-2.8544,-2.8552,-2.8541,-2.8588,-2.8592,-2.8596,-2.861,-2.8616,-2.8549,-2.8549,-2.8549,-2.8549,0,-2.8262,-2.8292,-2.8314,-2.8347,-2.8368,-2.8398,-2.8414,-2.8433,-2.8437,-2.8449,-2.8487,-2.8509,-2.8539,-2.8551,-2.8555,-2.8596,-2.8591,-2.8586,-2.8572,-2.8602,-2.8616,-2.8621,-2.8551,-2.855,-2.855,-2.855,0,0,-2.8302,-2.8342,-2.835,-2.8365,-2.8396,-2.8419,-2.845,-2.848,-2.8496,-2.852,-2.8545,-2.8585,-2.8581,-2.8598,-2.8605,-2.8625,-2.8657,-2.8617,-2.8618,-2.8622,-2.8702,-2.8704,-2.871,-2.8657,-2.8658,-2.8659,-2.8699,0,-2.834,-2.8395,-2.8406,-2.8453,-2.848,-2.8484,-2.8511,-2.8532,-2.8545,-2.8569,-2.8583,-2.8611,-2.8604,-2.8614,-2.8634,-2.8649,-2.8673,-2.8646,-2.8679,-2.868,-2.8671,-2.8717,-2.8719,-2.8756,-2.8704,-2.8705,-2.8706,0,-2.8392,-2.8418,-2.8468,-2.8495,-2.8507,-2.8531,-2.8559,-2.8583,-2.8608,-2.8616,-2.8636,-2.8641,-2.8672,-2.8658,-2.8701,-2.8683,-2.8697,-2.8707,-2.8708,-2.871,-2.8694,-2.8718,-2.8768,-2.8772,-2.8714,-2.8714,-2.8713,0,-2.8414,-2.8462,-2.8497,-2.851,-2.8544,-2.856,-2.8575,-2.8599,-2.8616,-2.8641,-2.8653,-2.8681,-2.8696,-2.8718,-2.873,-2.8719,-2.8772,-2.8759,-2.8778,-2.8778,-2.8788,-2.8786,-2.8838,-2.88,-2.88,-2.88,-2.88,0,-2.8455,-2.8485,-2.8507,-2.8529,-2.8562,-2.8576,-2.8608,-2.8623,-2.8644,-2.8668,-2.8674,-2.8696,-2.8712,-2.8737,-2.8747,-2.878,-2.8787,-2.8794,-2.8796,-2.8792,-2.8791,-2.88,-2.8798,-2.8801,-2.8801,-2.8801,-2.88,0,-2.8484,-2.8501,-2.8539,-2.8568,-2.8576,-2.8599,-2.8624,-2.8645,-2.8658,-2.8689,-2.8697,-2.8717,-2.8747,-2.8762,-2.8798,-2.8805,-2.8842,-2.8843,-2.8833,-2.8834,-2.8852,-2.8849,-2.8909,-2.8918,-2.8876,-2.8876,-2.8876,0,-2.8508,-2.8531,-2.8563,-2.858,-2.8595,-2.8622,-2.864,-2.8654,-2.8673,-2.8703,-2.872,-2.875,-2.8774,-2.8821,-2.8839,-2.8867,-2.8868,-2.8887,-2.8872,-2.8867,-2.8866,-2.8864,-2.8866,-2.8889,-2.8889,-2.889,-2.889,0,-2.8549,-2.8556,-2.8582,-2.8611,-2.8632,-2.8656,-2.8679,-2.8692,-2.871,-2.8731,-2.8761,-2.878,-2.8818,-2.8847,-2.8876,-2.8891,-2.8893,-2.8895,-2.8901,-2.8896,-2.8889,-2.8892,-2.8839,-2.8893,-2.8893,-2.8892,-2.8892,-2.8892,-2.8575,-2.8595,-2.8621,-2.8649,-2.8669,-2.869,-2.8711,-2.8727,-2.8753,-2.8785,-2.8792,-2.8824,-2.8848,-2.8888,-2.8904,-2.8928,-2.8924,-2.8933,-2.8934,-2.8936,-2.8936,-2.8887,-2.8934,-2.8934,-2.8934,-2.8934,-2.8934,0,-2.8614,-2.8631,-2.8658,-2.869,-2.8712,-2.8714,-2.874,-2.8758,-2.8786,-2.8809,-2.8833,-2.8868,-2.8896,-2.8917,-2.8946,-2.8962,-2.8964,-2.8969,-2.8967,-2.897,-2.8939,-2.893,-2.8967,-2.8967,-2.8967,-2.8967,-2.8967,-2.8967,-2.8637,-2.8672,-2.8682,-2.8726,-2.8742,-2.8774,-2.8788,-2.8808,-2.8826,-2.8865,-2.8889,-2.8902,-2.8924,-2.8955,-2.8981,-2.8986,-2.8996,-2.9001,-2.9006,-2.8976,-2.8972,-2.8969,-2.8961,-2.9003,-2.9003,-2.9035,-2.9035,-2.9035]},{"header":{"parameterUnit":"m.s-1","parameterCategory":1,"la1":30.2991,"la2":30.254,"lo1":-89.0895,"lo2":-89.0444,"dx":0.0017,"dy":0.0017,"nx":28,"ny":28,"refTime":"2023-01-27T15:00:00:Z","depth":0,"parameterNumber":3,"parameterNumberName":"V-component_of_WINDS"},"data":[0,0,0,0,0,0,0,0,0,0,0,0,0,0,0,0,0,0,0,0,0,0,0,0,0,0,0,0,0,0,0,0,0,0,0,0,0,0,0,0,0,0,0,0,0,0,0,0,0,0,0,0,0,0,0,0,0,0,3.0673,3.0674,0,3.0774,3.0776,3.0777,3.0803,3.0803,3.0802,3.0802,3.0904,3.0907,3.091,0,0,0,0,0,0,0,0,0,0,0,0,0,3.0504,3.0507,3.0673,3.0674,3.0676,3.0774,3.0776,3.0777,3.0803,3.0803,3.0802,3.0801,3.0903,3.0907,3.0911,0,0,0,0,0,0,0,0,0,0,0,0,0,3.0588,3.0508,3.0673,3.0701,3.0704,3.0774,3.0776,3.0777,3.0804,3.0803,3.0802,3.0801,3.0902,3.0906,3.0911,3.096,0,0,3.0926,3.0928,0,0,0,0,0,0,0,0,3.0584,3.0595,3.0695,3.0699,3.0703,3.0775,3.0753,3.0838,3.0804,3.0766,3.0802,3.0801,3.0862,3.087,3.0891,3.0965,3.0969,3.0927,3.093,3.0932,3.0933,0,0,0,0,0,0,0,3.0578,3.059,3.0713,3.0697,3.0702,3.0709,3.072,3.077,3.0818,3.0769,3.0771,3.0783,3.0864,3.0886,3.0893,3.097,3.0927,3.0931,3.0934,3.0936,3.1093,3.1094,0,0,0,0,0,0,3.0567,3.0585,3.071,3.0716,3.064,3.0712,3.0725,3.0753,3.0817,3.0826,3.0784,3.0784,3.0878,3.0888,3.0897,3.0961,3.0932,3.0936,3.0939,3.1092,3.1093,3.1095,0,0,0,0,0,0,3.0563,3.0578,3.0706,3.0652,3.0668,3.0716,3.0748,3.0756,3.0778,3.0828,3.0837,3.0798,3.0878,3.089,3.0945,3.0965,3.0939,3.0943,3.109,3.1092,3.1094,3.1087,0,0,0,0,0,0,3.0558,3.0576,3.0595,3.0652,3.0671,3.0752,3.0749,3.0758,3.0787,3.0788,3.0844,3.0852,3.0878,3.0937,3.095,3.0971,3.0947,3.1089,3.1091,3.1093,3.1086,3.1089,3.1091,0,0,0,0,0,3.0552,3.0588,3.0596,3.0611,3.0695,3.0753,3.0764,3.0793,3.0788,3.0808,3.084,3.085,3.096,3.0943,3.0957,3.098,3.1088,3.109,3.1093,3.1085,3.1088,3.1091,0,0,0,0,0,0,3.0531,3.0596,3.0605,3.066,3.0701,3.0757,3.0783,3.0795,3.0838,3.0837,3.0872,3.0884,3.0937,3.0964,3.0943,3.1032,3.1024,3.103,3.1013,3.1017,3.1019,3.1012,3.0951,0,0,0,0,0,3.0533,3.0574,3.0628,3.0672,3.0692,3.0734,3.076,3.0779,3.0823,3.084,3.0876,3.0918,3.0962,3.0991,3.1034,3.109,3.1104,3.1113,3.1115,3.1117,3.1122,3.1157,3.1162,3.1103,3.1103,3.1103,0,0,3.0537,3.0578,3.0601,3.0669,3.0703,3.0746,3.0748,3.0792,3.0825,3.0846,3.0901,3.093,3.0978,3.1035,3.1061,3.1059,3.1141,3.1121,3.1122,3.1126,3.116,3.1166,3.1171,3.1105,3.1105,3.1105,0,0,3.0567,3.0601,3.0643,3.0677,3.0729,3.0757,3.0767,3.0822,3.0842,3.0898,3.0916,3.0955,3.1029,3.1065,3.1092,3.1139,3.115,3.1151,3.1165,3.1198,3.1203,3.1207,3.1227,3.1233,3.1156,3.1156,3.1156,0,3.0566,3.0631,3.0662,3.0707,3.0737,3.076,3.0803,3.0835,3.0898,3.0918,3.0914,3.1011,3.1045,3.1112,3.1124,3.1144,3.1158,3.1146,3.12,3.1205,3.1209,3.1228,3.1235,3.1156,3.1156,3.1156,3.1156,0,3.0628,3.0673,3.0701,3.0763,3.0796,3.0839,3.0878,3.0908,3.0925,3.0954,3.1012,3.1054,3.1107,3.1124,3.114,3.1194,3.1191,3.1193,3.1186,3.1214,3.1233,3.124,3.1156,3.1156,3.1156,3.1156,0,0,3.0647,3.0728,3.0737,3.0767,3.0827,3.0863,3.0908,3.0962,3.0988,3.1031,3.1071,3.1135,3.1139,3.117,3.119,3.122,3.1257,3.1219,3.122,3.1226,3.1322,3.1322,3.133,3.1265,3.1266,3.1268,3.1319,0,3.0686,3.0769,3.08,3.0868,3.0911,3.0935,3.0975,3.1016,3.1045,3.1086,3.1117,3.1163,3.1163,3.1182,3.1212,3.1246,3.1277,3.1243,3.1304,3.1306,3.1294,3.1339,3.1338,3.1385,3.1326,3.1327,3.1328,0,3.0743,3.0789,3.0861,3.0919,3.0938,3.0974,3.1027,3.1066,3.1114,3.1133,3.117,3.1189,3.1239,3.1228,3.1298,3.1274,3.1301,3.1322,3.1325,3.1333,3.132,3.1351,3.14,3.1408,3.1339,3.1338,3.1338,0,3.0753,3.0832,3.0887,3.0911,3.0979,3.1004,3.1033,3.1081,3.1112,3.1159,3.118,3.1231,3.1259,3.1299,3.1332,3.132,3.1401,3.1391,3.1419,3.1419,3.1436,3.1435,3.1493,3.145,3.145,3.1449,3.1449,0,3.0794,3.0838,3.0893,3.0926,3.0978,3.1013,3.1062,3.1093,3.1136,3.1177,3.1199,3.1238,3.1278,3.1322,3.1348,3.1404,3.1416,3.1434,3.1441,3.1433,3.1432,3.1453,3.1451,3.1451,3.1451,3.145,3.145,0,3.0814,3.0852,3.0914,3.0974,3.099,3.1025,3.1077,3.1111,3.1141,3.1193,3.1208,3.1255,3.1308,3.1345,3.1412,3.143,3.1492,3.1497,3.1476,3.148,3.1506,3.1504,3.1582,3.1595,3.154,3.1541,3.1541,0,3.0839,3.0874,3.0939,3.0968,3.0998,3.1045,3.1078,3.1115,3.1148,3.1208,3.1235,3.129,3.1336,3.142,3.1461,3.1513,3.1522,3.1545,3.153,3.1522,3.1525,3.1524,3.1529,3.1548,3.1548,3.1549,3.1549,0,3.088,3.0898,3.0945,3.0999,3.1038,3.1082,3.1127,3.115,3.1194,3.1231,3.1286,3.1322,3.1392,3.1447,3.1504,3.1535,3.1551,3.1553,3.1563,3.1557,3.1544,3.1555,3.1485,3.1552,3.1551,3.1551,3.1551,3.1551,3.0906,3.0939,3.0991,3.1043,3.1081,3.1122,3.1159,3.1195,3.1241,3.1302,3.1321,3.1379,3.1429,3.1508,3.154,3.1586,3.1585,3.1598,3.1602,3.1605,3.1607,3.1535,3.1596,3.1596,3.1596,3.1596,3.1596,0,3.095,3.0986,3.1033,3.1096,3.1138,3.1148,3.1199,3.1233,3.1284,3.133,3.1376,3.1441,3.1495,3.1541,3.1597,3.1626,3.1635,3.164,3.1639,3.1647,3.1603,3.1591,3.1632,3.1632,3.1632,3.1632,3.1632,3.1632,3.0979,3.1037,3.1062,3.114,3.1175,3.1233,3.1261,3.13,3.1338,3.141,3.1455,3.1485,3.1532,3.1592,3.1643,3.1656,3.1676,3.1681,3.1695,3.1653,3.1649,3.1646,3.1634,3.1684,3.1684,3.1735,3.1735,3.1736]}]]